Location: *
(50.3440°N, 18.6237°E)
Time: 17:17:16
(UTC+00:00)

Cosmos 1515 Rocket - Pass Details

Date: 30 November 2020
Orbit: 606 x 630 km, 82.5° (Epoch: 17 January)

Event Time Altitude Azimuth Distance (km) Brightness Sun altitude
Rises 16:58:00 0° 191° (S) 2,873 7.3 -20.3°
Reaches altitude 10° 17:00:13 10° 192° (SSW) 1,976 6.4 -20.6°
Maximum altitude 17:04:36 82° 279° (W) 634 3.6 -21.3°
Enters shadow 17:07:34 21° 7° (N) 1,420 5.2 -21.8°
